Lid_Strength_Index
1 1 1 1 0 1 1 2 4 6 5 2 2 -0 -1 -1 -1 -1 -1 3 2 2 3 2 2 1 1 1 1 0 0 0 -0 -1 -1 -1 -1 -1
0 1 1 1 0 0 1 1 2 3 5 2 1 0 -1 -1 -1 -1 -1 1 3 3 3 2 2 2 2 2 2 1 1 1 1 0 -0 -0 -0 -0
0 0 1 -0 1 1 1 1 2 2 4 2 1 0 0 0 -0 -1 -1 -1 -0 4 4 4 5 4 4 3 2 2 1 1 1 1 1 1 0 -0
1 1 1 0 1 0 1 1 2 2 3 4 2 1 1 -0 0 0 -0 -1 -1 4 4 4 4 4 4 4 4 4 5 5 4 4 3 2 2 1
0 1 0 0 1 1 1 1 2 2 2 3 3 1 1 0 1 -0 -0 -0 -0 3 4 4 4 4 4 4 4 4 5 5 5 4 4 3 2 2
-0 0 0 0 1 1 1 1 1 2 2 3 3 3 2 1 1 2 2 1 1 -1 2 2 2 3 3 3 3 2 4 4 5 6 6 6 5 4
0 0 -0 0 1 1 1 1 1 2 2 3 3 3 3 3 3 1 2 1 1 -0 0 -0 -1 -1 -1 2 1 2 4 5 5 6 7 7 6 6
1 0 -0 1 1 4 4 5 2 2 3 3 3 3 3 2 2 2 2 3 3 -0 1 1 -0 -1 -1 -2 3 5 5 6 6 6 7 7 7 7
0 0 1 0 1 0 2 6 6 8 6 1 3 3 3 2 1 2 2 2 2 1 1 1 0 0 -1 -1 4 5 6 6 7 7 7 7 7 8
-0 0 0 0 0 1 0 1 1 1 3 3 1 1 1 0 0 1 1 1 1 0 -0 2 -0 0 -1 -1 5 6 6 7 7 7 7 8 8 8
-0 -0 0 0 4 8 1 1 2 1 7 8 7 8 8 7 3 1 2 2 3 2 0 1 1 1 0 -0 -1 5 7 6 6 7 7 7 8 9
0 0 5 2 7 8 1 2 2 2 3 2 2 5 6 5 8 -0 1 2 2 3 1 2 1 1 2 -1 -1 -1 -1 6 7 7 7 7 8 -0
1 1 0 8 10 8 10 2 2 1 4 1 1 3 2 1 0 -0 -0 1 2 2 0 0 1 1 1 1 0 -0 -1 -1 -1 0 8 8 8 5
1 1 1 8 10 9 10 10 11 7 1 2 2 2 2 1 1 0 -0 -1 -1 -0 -1 -1 1 0 1 2 2 0 -0 -1 -0 -0 -0 4 8 9
1 2 8 8 8 8 12 12 12 1 2 2 3 2 2 1 0 0 -0 -1 -1 -1 -1 -1 -0 0 -0 1 1 1 1 1 -1 -0 0 0 1 1
3 2 3 5 7 4 7 9 1 1 2 2 2 2 1 1 1 1 1 1 1 1 -1 -1 -1 -1 0 1 0 1 0 2 0 0 0 2 4 5
2 1 2 2 2 2 2 3 1 1 2 2 2 2 2 1 2 1 1 1 2 2 2 1 -0 0 2 1 2 1 1 1 0 1 1 5 5 5
2 2 3 2 3 3 3 3 2 3 2 1 1 2 2 2 2 1 1 2 2 2 2 1 1 1 1 3 5 2 1 1 2 1 1 4 6 7
2 3 3 3 3 3 2 2 3 2 1 1 2 2 2 2 2 2 2 2 2 2 1 1 1 2 4 5 4 11 4 1 1 2 3 4 6 7
2 3 3 2 3 2 2 2 2 2 2 2 2 1 1 2 2 2 2 2 2 2 2 1 1 1 3 4 9 11 14 4 2 2 3 4 6 9
2 2 2 2 2 2 2 2 2 2 2 2 2 1 2 2 2 2 2 6 4 2 3 2 1 10 2 4 7 10 11 12 10 7 3 2 3 5
2 2 2 2 2 2 2 2 2 2 2 2 2 1 2 2 2 2 2 2 2 2 2 1 0 1 1 3 8 10 10 10 10 12 12 11 9 10
2 2 2 2 1 1 1 2 2 2 2 1 2 2 1 2 1 2 2 1 1 2 2 6 8 6 7 8 9 8 8 8 8 9 10 12 12 12